Find Starlink 30198

NORAD ID: 57290 Int'l Des: 2023-096 Owner: SPXS Country: US Constellation: starlink operational
LEOCIRCULAR

当前视图

正在加载3D地球...

About Starlink 30198

Starlink 30198 (NORAD 57290) is a starlink constellation satellite (v2 mini) launched Jul 10, 2023 by SPXS of US. It operates in LEO, CIRCULAR orbit with a mass of 730.00 kg.

关于 Starlink 30198

正在加载描述...

即将过境

Passes for default location (London). Set your location on the main map for personalized predictions.

高度历史

Loading altitude history...

两行轨道根数

1 57290U 23096A 26175.19049488 .00032322 00000-0 12365-2 0 9998
2 57290 42.9900 346.0631 0008704 282.3783 77.6093 15.25973276163856
Epoch: Jun 24, 2026 • Age: 24 hours

当前状态

高度 485.5 km
速度 7.63 km/s
星下点 -0.09°S, 5.09°E
发射日期 Jul 10, 2023
运行时间 2.9 years
类型 internet

技术详情

分类 Payload
质量 730.00 kg
干质量 700.00 kg
总质量 730.00 kg
长度 0.30 m
直径 4.10 m
跨度 29.00 m
形状 Box + pan
制造商 SPXS
平台类型 Starlink V2M
阶段状态 In Orbit
所有者/国家 SPXS/US

Most Searched